Regional Weather Roundup
Issued by NWS

Home | Current Version | Previous Version | Text Only | Print | Product List | Glossary On
Versions: 1 2 3 4 5 6 7 8 9 10 11 12 13 14 15 16 17 18 19 20 21 22 23 24 25 26 27 28 29 30 31 32 33 34 35 36 37 38 39 40 41 42 43 44 45 46 47 48 49 50
000
ASUS44 KEWX 060111
RWRTX
SOUTH TEXAS REGIONAL WEATHER ROUNDUP
NATIONAL WEATHER SERVICE AUSTIN/SAN ANTONIO TX
800 PM CDT SUN JUL 05 2015

NOTE: "FAIR" INDICATED FEW OR NO CLOUDS BELOW 12,000 FEET WITH NO
SIGNIFICANT WEATHER AND/OR OBSTRUCTIONS TO VISIBILITY.

* - THESE STATIONS ARE NOT NWS OR FAA STATIONS...AND ARE NOT SUBJECT
    TO NWS AND FAA QUALITY CONTROL.

TXZ171-172-183>190-060200-
TEXAS HILL COUNTRY AND EDWARDS PLATEAU

CITY           SKY/WX    TMP DP  RH WIND       PRES   REMARKS
JUNCTION       CLEAR     87  66  49 S15G23    29.96R
*LLANO         PTCLDY    88  70  55 S9G21     29.97S HX  92
BURNET         MOCLDY    85  70  60 S12G20    29.98S
*HORSESHOE BAY MOCLDY    87  70  57 S8G18     29.96R HX  92
*KERRVILLE     PTCLDY    83  72  70 SE14      29.98S
*FREDERICKSBRG PTCLDY    83  68  60 S10G17    29.98S
*ROCKSPRINGS   CLEAR     82  66  57 S14G20    30.01S HAZE
*BOERNE STAGE  PTCLDY    82  70  65 S7G17     29.99R
*CASTROVILLE   CLEAR     86  71  59 SE12      29.96R HX  91
HONDO          LGT RAIN  86  71  60 SE13      29.95R HX  91
*UVALDE        CLEAR     87  71  59 SE7       29.93R HX  92
DEL RIO        CLEAR     89  68  49 SE14      29.89S HX  93
LAUGHLIN AFB   CLEAR     89  71  55 S14       29.90S HX  95
CARRIZO SPRGS  PTCLDY    90  70  51 SE10G17   29.87S HX  95
$$

TXZ173-191>194-202-209-217>225-228-060200-
CENTRAL AND SOUTH CENTRAL TEXAS

CITY           SKY/WX    TMP DP  RH WIND       PRES   REMARKS
GEORGETOWN     PTCLDY    88  70  55 SE13G18   29.94R HX  92
AUSTIN/BERGSTM PTCLDY    85  71  63 SE15      29.94S HX  90
AUSTIN/MABRY   CLEAR     85  71  63 S8G16     29.96R HX  90
*AUSTIN/EXEC   CLEAR     86  72  62 S8        29.96R HX  92
*LAGO VISTA    MOCLDY    85  70  61 SE12G18   29.98R
SAN MARCOS     CLEAR     84  72  65 SE12      29.96R
NEW BRAUNFELS  PTCLDY    86  73  65 S12       29.94R HX  93
RANDOLPH AFB   PTCLDY    84  73  68 SE14      29.96R HX  90
PT SAN ANTONIO PTCLDY    86  74  68 SE17      29.94R HX  93
SAN ANTONIO    PTCLDY    86  72  62 SE21      29.95R HX  92
STINSON FIELD  MOCLDY    87  74  64 SE12      29.93R HX  95
*PLEASANTON    PTCLDY    86  73  66 SE9G18    29.94R HX  93
*LA GRANGE     CLEAR     86  76  71 S7        29.96R HX  95
*GIDDINGS      CLEAR     84  71  64 S7        30.01R
*GONZALES      PTCLDY    85  75  72 S10G21    29.96R HX  94
$$

TXZ163>164-176>182-195>201-210>213-226-227-235-060200-
SOUTHEAST TEXAS

CITY           SKY/WX    TMP DP  RH WIND       PRES   REMARKS
COLLEGE STN    CLEAR     87  72  60 S9        29.97R HX  93
*BRYAN         CLEAR     85  73  65 S9G17     29.99R HX  92
*CALDWELL      CLEAR     84  73  70 SE9       30.00R HX  91
*CROCKETT      CLEAR     88  77  70 CALM      30.02R HX 100
*BRENHAM       CLEAR     87  73  62 S8        29.99R HX  94
HUNTSVILLE     PTCLDY    87  73  62 S7        30.00R HX  94
CONROE         PTCLDY    87  73  62 S9        30.00R HX  94
HOUSTON BUSH   PTCLDY    87  73  62 S9        30.00R HX  94
HOUSTON HOBBY  PTCLDY    85  75  72 S10       30.00R HX  93
*HOUSTON SW AP CLEAR     78  70  77 SE7       30.00S
PEARLAND       PTCLDY    87  75  67 SE9       30.02R HX  96
HOUSTON HOOKS  PTCLDY    87  71  58 S7        29.99R HX  93
ELLINGTON FLD  PTCLDY    86  75  70 SE10      30.01R HX  95
SUGAR LAND     CLEAR     86  74  67 S13       29.99R HX  94
*HOUSTON EXEC  CLEAR     84  73  70 S8        30.00S HX  91
*CLEVELAND MUN CLEAR     83  77  81 S3        30.02R HAZE    HX  93
*WHARTON       CLEAR     82  75  78 SE7       30.00R
*COLUMBUS      FAIR      83  75  76 S8        29.98R HX  91
$$

TXZ214>216-236>238-060200-
THE UPPER TEXAS COAST

CITY           SKY/WX    TMP DP  RH WIND       PRES   REMARKS
*ORANGE        CLEAR     85  71  62 S7        30.07R
PORT ARTHUR    CLEAR     83  75  77 S7        30.05R HX  90
GALVESTON      PTCLDY    85  78  80 S10       30.04R HX  96
ANGLETON       PTCLDY    84  77  79 S8        30.01R HX  94
*BAY CITY      PTCLDY    85  78  79 SE5       30.00R HX  96
PALACIOS       MOCLDY    85  77  77 SE16      29.99R HX  95
$$

TXZ229>234-239>247-060200-
TEXAS COASTAL BEND AND RIO GRANDE PLAINS

CITY           SKY/WX    TMP DP  RH WIND       PRES   REMARKS
VICTORIA       PTCLDY    84  75  74 S16       29.98R HX  92
*BEEVILLE      PTCLDY    82  78  87 SE13G20   29.96R HX  92
ROCKPORT       LGT RAIN  84  77  79 SE13G24   29.96R HX  94
*PORT ARANSAS  MOCLDY    82  78  88 S12G17    29.97R HX  92
*PORT LAVACA   NOT AVBL
*INGLESIDE     PTCLDY    85  78  80 SE16G24   29.96R HX  96
CORPUS CHRISTI PTCLDY    84  76  76 SE22G30   29.95R HX  93
CORPUS NAS     CLEAR     83  78  85 SE17G28   29.96R HX  93
*ROBSTOWN      CLEAR     85  76  75 SE16G29   29.95R HX  94
ALICE          CLOUDY    85  77  77 SE17G24   29.93R HX  95
KINGSVILLE NAS MOCLDY    85  80  85 SE15G26   29.94R HX  99
COTULLA        LGT RAIN  91  71  51 SE15G26   29.90R HX  97
*FAITH RANCH     N/A     93  68  43 SE10G18   29.89R HX  97
LAREDO         PTCLDY    93  72  50 SE20      29.90R HX 100
$$

TXZ248>255-060200-
DEEP SOUTH TEXAS

CITY           SKY/WX    TMP DP  RH WIND       PRES   REMARKS
BROWNSVILLE    MOCLDY    84  78  82 SE16G30   29.95S HX  95
PORT ISABEL    MOCLDY    84  78  82 SE17G24   29.95S HAZE    HX  95
*SOUTH PADRE   CLEAR     81  77  89 SW10      29.96S VSB 1
HARLINGEN      PTCLDY    86  76  71 SE21G29   29.93S HX  96
*HEBBRONVILLE    N/A     87  71  58 SE13G24   29.94R HX  92
MCALLEN        PTCLDY    88  75  65 SE21      29.93R HX  97
*WESLACO       PTCLDY    86  74  67 SE15G24   29.93S HX  93
FALFURRIAS     PTCLDY    87  74  64 SE13G22   29.93R HX  95
EDINBURG       CLEAR     88  73  60 SE14G21   29.94R HX  95
*ZAPATA        CLEAR     91  71  52 SE13G20   29.89R HX  96
$$

TXZ213>215-236>238-242>244-246-247-251-254-255-060200-
CMAN STATIONS

STATION/POSITION TIME  TEMP    WIND        PRES    WAVE
                       AIR SEA DIR/SP/G            HT/PER
                 (UTC) (F)     (DEG/KT/KT) (MB)    (FT/S)
$$

GMZ080-GMZ150>470-060200-
OFFSHORE BUOY REPORTS

STATION/POSITION TIME  TEMP    WIND        PRES    WAVE
                       AIR SEA DIR/SP/G            HT/PER
                 (UTC) (F)     (DEG/KT/KT) (MB)    (FT/S)
$$



USA.gov is the U.S. government's official web portal to all federal, state and local government web resources and services.